Home   Weather   Muncie   Past weeks
Flag for USA

Past Weather in Muncie, Indiana, USA — Yesterday and Last 2 Weeks

Now
89 °F

Sunny.


Feels Like: 102 °F
Forecast: 94 / 77 °F
Wind: 12 mph from South

Location: Delaware County-Johnson Field

Current Time: Jul 20, 2019 at 12:56:54 pm

Latest Report: Jul 20, 2019 at 11:53 am


Visibility: 10 mi

Pressure: 29.90 "Hg

Humidity: 68%

Dew Point: 77 °F

Location of MuncieLocation

Past Weather in Muncie — Graph

°F

Muncie Temperature Yesterday

Maximum temperature yesterday: 94 °F (at 3:53 pm)
Minimum temperature yesterday: 80 °F (at 2:53 am)
Average temperature yesterday: 85 °F

High & Low Weather Summary for the Past Weeks

 TemperatureHumidityPressure
High95 °F (Jul 10, 3:53 pm)91% (Jul 14, 8:53 am)30.14 "Hg (Jul 14, 8:53 am)
Low62 °F (Jul 12, 5:53 am)24% (Jul 8, 6:53 pm)29.80 "Hg (Jul 18, 6:53 pm)
Average80 °F71%29.96 "Hg
* Reported Jul 5 10:53 am — Jul 20 10:53 am, Muncie. Weather by CustomWeather, © 2019

Note: Actual official high and low records may vary slightly from our data, if they occured in-between our weather recording intervals... More about our weather records

Advertising

Muncie Weather History for the Previous 24 Hours

Scroll right to see more
 ConditionsComfort  
Time TempWeatherWind HumidityBarometerVisibility
10:53 am
Sat, Jul 20
85 °FSunny.9 mph75%29.92 "Hg10 mi
9:53 am83 °FSunny.6 mph77%29.93 "Hg8 mi
8:53 am81 °FPassing clouds.6 mph82%29.94 "Hg7 mi
8:30 am80 °FMostly cloudy.6 mph85%29.99 "Hg6 mi
8:15 am80 °FPartly sunny.6 mph85%30.00 "Hg6 mi
7:53 am80 °FScattered clouds.3 mph85%29.96 "Hg7 mi
6:53 am79 °FSunny.No wind84%29.98 "Hg7 mi
5:53 am78 °FClear.No wind87%29.97 "Hg8 mi
4:53 am79 °FClear.5 mph84%29.93 "Hg10 mi
3:53 am81 °FClear.7 mph82%29.91 "Hg10 mi
2:53 am82 °FClear.9 mph79%29.92 "Hg10 mi
1:53 am82 °FClear.8 mph79%29.91 "Hg10 mi
12:53 am83 °FClear.8 mph77%29.92 "Hg10 mi
11:53 pm
Fri, Jul 19
83 °FClear.3 mph77%29.94 "Hg10 mi
10:53 pm85 °FClear.6 mph70%29.93 "Hg10 mi
9:53 pm86 °FClear.7 mph65%29.89 "Hg10 mi
8:53 pm88 °FSunny.9 mph59%29.87 "Hg10 mi
7:53 pm91 °FSunny.8 mph56%29.87 "Hg10 mi
6:53 pm93 °FPassing clouds.6 mph54%29.87 "Hg10 mi
5:53 pm93 °FPassing clouds.12 mph54%29.88 "Hg10 mi
4:53 pm94 °FScattered clouds.13 mph52%29.89 "Hg10 mi
3:53 pm94 °FPassing clouds.13 mph54%29.89 "Hg10 mi
2:53 pm93 °FPassing clouds.14 mph56%29.90 "Hg10 mi
1:53 pm91 °FPassing clouds.13 mph64%29.90 "Hg10 mi
12:53 pm90 °FPassing clouds.12 mph63%29.90 "Hg10 mi
Weather by CustomWeather, © 2019

See weather overview